TimeCET,TemperatureF,Dew PointF,Humidity,Sea Level PressureIn,VisibilityMPH,Wind Direction,Wind SpeedMPH,Gust SpeedMPH,PrecipitationIn,Events,Conditions,WindDirDegrees,DateUTC
12:03 AM,30.2,28.4,93,30.12,-9999.0,SW,2.3,-,N/A,,Mostly Cloudy,230,2013-02-18 23:03:00
12:07 AM,28.4,28.4,100,30.12,3.1,SW,2.3,-,N/A,,Mostly Cloudy,230,2013-02-18 23:07:00
12:20 AM,30.2,28.4,93,30.12,3.7,SW,1.2,-,N/A,,Scattered Clouds,230,2013-02-18 23:20:00
12:25 AM,30.2,28.4,93,30.12,3.1,SW,2.3,-,N/A,,Partly Cloudy,230,2013-02-18 23:25:00
12:30 AM,30.2,28.4,93,30.12,2.8,SW,3.5,-,N/A,,Partly Cloudy,230,2013-02-18 23:30:00
12:35 AM,28.4,28.4,100,30.12,-9999.0,SW,3.5,-,N/A,,Scattered Clouds,230,2013-02-18 23:35:00
12:37 AM,28.4,28.4,100,30.12,2.5,SW,3.5,-,N/A,,Scattered Clouds,230,2013-02-18 23:37:00
12:47 AM,28.4,26.6,93,30.12,3.1,SW,3.5,-,N/A,,Partly Cloudy,230,2013-02-18 23:47:00
12:51 AM,28.4,26.6,93,30.12,-9999.0,SW,3.5,-,N/A,,Partly Cloudy,230,2013-02-18 23:51:00
12:55 AM,28.4,26.6,93,30.12,-9999.0,SW,3.5,-,N/A,,Partly Cloudy,230,2013-02-18 23:55:00
1:00 AM,28,28,98,30.14,2,SW,2.2,,,,Mist,230,2013-02-19 00:00:00
1:00 AM,28.4,26.6,93,30.12,2.2,SW,3.5,-,N/A,,Mostly Cloudy,220,2013-02-19 00:00:00
1:06 AM,28.4,28.4,100,30.12,-9999.0,SW,3.5,-,N/A,,Mostly Cloudy,230,2013-02-19 00:06:00
1:19 AM,28.4,28.4,100,30.12,3.1,WSW,2.3,-,N/A,,Mostly Cloudy,240,2013-02-19 00:19:00
1:25 AM,28.4,28.4,100,30.12,3.1,SW,2.3,-,N/A,,Mostly Cloudy,230,2013-02-19 00:25:00
1:38 AM,28.4,28.4,100,30.12,3.1,SW,2.3,-,N/A,,Mostly Cloudy,220,2013-02-19 00:38:00
1:55 AM,30.2,28.4,93,30.12,3.7,SW,3.5,-,N/A,,Overcast,230,2013-02-19 00:55:00
2:19 AM,30.2,30.2,100,30.12,-9999.0,West,2.3,-,N/A,,Scattered Clouds,280,2013-02-19 01:19:00
2:25 AM,30.2,30.2,100,30.12,3.1,West,2.3,-,N/A,,Scattered Clouds,280,2013-02-19 01:25:00
2:38 AM,30.2,28.4,93,30.12,3.7,SW,1.2,-,N/A,,Partly Cloudy,230,2013-02-19 01:38:00
2:48 AM,30.2,28.4,93,30.12,-9999.0,WSW,2.3,-,N/A,,Scattered Clouds,240,2013-02-19 01:48:00
2:55 AM,30.2,30.2,100,30.09,3.1,SW,2.3,-,N/A,,Scattered Clouds,230,2013-02-19 01:55:00
3:07 AM,30.2,28.4,93,30.09,3.1,WSW,1.2,-,N/A,,Partly Cloudy,240,2013-02-19 02:07:00
3:13 AM,28.4,28.4,100,30.09,-9999.0,WSW,1.2,-,N/A,,Partly Cloudy,240,2013-02-19 02:13:00
3:17 AM,28.4,28.4,100,30.09,3.1,WSW,1.2,-,N/A,,Partly Cloudy,240,2013-02-19 02:17:00
3:21 AM,28.4,28.4,100,30.09,-9999.0,WSW,1.2,-,N/A,,Partly Cloudy,250,2013-02-19 02:21:00
3:25 AM,28.4,28.4,100,30.09,2.8,West,1.2,-,N/A,,Scattered Clouds,260,2013-02-19 02:25:00
3:43 AM,28.4,28.4,100,30.09,3.1,NW,3.5,-,N/A,,Mist,310,2013-02-19 02:43:00
3:55 AM,28.4,26.6,93,30.09,3.7,West,2.3,-,N/A,,Partly Cloudy,270,2013-02-19 02:55:00
4:00 AM,27,27,99,30.11,3,WSW,4.5,,,,Mist,250,2013-02-19 03:00:00
4:25 AM,28.4,28.4,100,30.09,3.1,WSW,4.6,-,N/A,,Overcast,240,2013-02-19 03:25:00
4:55 AM,30.2,28.4,93,30.09,3.7,WSW,3.5,-,N/A,,Overcast,250,2013-02-19 03:55:00
5:25 AM,32.0,30.2,93,30.06,3.7,WNW,3.5,-,N/A,,Overcast,290,2013-02-19 04:25:00
5:55 AM,30.2,30.2,100,30.06,3.1,West,3.5,-,N/A,,Overcast,270,2013-02-19 04:55:00
6:25 AM,30.2,30.2,100,30.06,2.8,WNW,2.3,-,N/A,,Overcast,290,2013-02-19 05:25:00
6:55 AM,30.2,30.2,100,30.06,-9999.0,West,1.2,-,N/A,,Overcast,260,2013-02-19 05:55:00
7:00 AM,31,30,95,30.09,2,SW,2.2,,,,Mist,220,2013-02-19 06:00:00
7:25 AM,32.0,30.2,93,30.06,-9999.0,SW,2.3,-,N/A,,Mostly Cloudy,230,2013-02-19 06:25:00
7:55 AM,32.0,32.0,100,30.06,1.6,West,2.3,-,N/A,,Overcast,260,2013-02-19 06:55:00
8:25 AM,32.0,32.0,100,30.06,1.6,WSW,3.5,-,N/A,,Overcast,250,2013-02-19 07:25:00
8:55 AM,33.8,32.0,93,30.06,-9999.0,West,3.5,-,N/A,,Overcast,260,2013-02-19 07:55:00
9:25 AM,33.8,33.8,100,30.06,-9999.0,West,3.5,-,N/A,,Overcast,260,2013-02-19 08:25:00
9:55 AM,35.6,33.8,93,30.06,-9999.0,West,4.6,-,N/A,,Overcast,270,2013-02-19 08:55:00
10:00 AM,35,34,94,30.09,3,West,4.5,,,,Mist,260,2013-02-19 09:00:00
10:25 AM,35.6,33.8,93,30.06,-9999.0,West,5.8,-,N/A,,Overcast,270,2013-02-19 09:25:00
10:35 AM,35.6,33.8,93,30.06,3.1,West,4.6,-,N/A,,Overcast,270,2013-02-19 09:35:00
10:55 AM,37.4,35.6,93,30.06,3.1,West,3.5,-,N/A,,Overcast,280,2013-02-19 09:55:00
11:25 AM,37.4,35.6,93,30.06,-9999.0,West,4.6,-,N/A,,Overcast,280,2013-02-19 10:25:00
11:55 AM,39.2,35.6,87,30.06,2.8,West,4.6,-,N/A,,Overcast,270,2013-02-19 10:55:00
12:25 PM,39.2,37.4,93,30.06,-9999.0,West,5.8,-,N/A,,Mostly Cloudy,280,2013-02-19 11:25:00
12:55 PM,41.0,37.4,87,30.06,-9999.0,West,5.8,-,N/A,,Overcast,270,2013-02-19 11:55:00
1:00 PM,41,37,79,30.07,3,WNW,6.7,,,,Mist,290,2013-02-19 12:00:00
1:25 PM,41.0,37.4,87,30.04,3.1,WNW,6.9,-,N/A,,Mostly Cloudy,300,2013-02-19 12:25:00
1:55 PM,41.0,37.4,87,30.04,3.1,WNW,5.8,-,N/A,,Scattered Clouds,290,2013-02-19 12:55:00
2:25 PM,41.0,35.6,81,30.04,3.1,NW,5.8,-,N/A,,Mostly Cloudy,310,2013-02-19 13:25:00
2:55 PM,41.0,35.6,81,30.04,3.7,NW,5.8,-,N/A,,Mostly Cloudy,310,2013-02-19 13:55:00
3:25 PM,42.8,35.6,76,30.04,4.3,NW,6.9,-,N/A,,Mostly Cloudy,310,2013-02-19 14:25:00
3:55 PM,42.8,35.6,76,30.01,4.3,WNW,4.6,-,N/A,,Mostly Cloudy,300,2013-02-19 14:55:00
4:00 PM,42,36,72,30.04,4,WNW,4.5,,,Rain,Light Rain Showers,300,2013-02-19 15:00:00
4:25 PM,41.0,37.4,87,30.01,3.7,WNW,5.8,-,N/A,,Light Drizzle,300,2013-02-19 15:25:00
4:55 PM,41.0,37.4,87,30.04,3.7,NW,4.6,-,N/A,Rain,Light Rain,310,2013-02-19 15:55:00
5:25 PM,41.0,37.4,87,30.04,-9999.0,NW,4.6,-,N/A,Rain,Light Rain,320,2013-02-19 16:25:00
5:55 PM,41.0,37.4,87,30.04,-9999.0,NNW,3.5,-,N/A,,Light Drizzle,340,2013-02-19 16:55:00
6:11 PM,39.2,37.4,93,30.04,-9999.0,NW,2.3,-,N/A,,Light Drizzle,320,2013-02-19 17:11:00
6:25 PM,39.2,37.4,93,30.04,-9999.0,NNW,1.2,-,N/A,,Overcast,330,2013-02-19 17:25:00
6:38 PM,39.2,37.4,93,30.04,-9999.0,NW,2.3,-,N/A,,Overcast,320,2013-02-19 17:38:00
6:55 PM,39.2,37.4,93,30.04,-9999.0,NNW,2.3,-,N/A,,Overcast,330,2013-02-19 17:55:00
6:59 PM,39.2,37.4,93,30.04,-9999.0,NNW,2.3,-,N/A,,Overcast,330,2013-02-19 17:59:00
7:00 PM,40,38,90,30.06,2,NNW,2.2,,,Rain,Drizzle,330,2013-02-19 18:00:00
7:03 PM,39.2,37.4,93,30.04,-9999.0,NNW,2.3,-,N/A,,Overcast,330,2013-02-19 18:03:00
7:16 PM,39.2,37.4,93,30.04,-9999.0,NNW,2.3,-,N/A,,Overcast,330,2013-02-19 18:16:00
7:20 PM,39.2,37.4,93,30.04,-9999.0,NNW,2.3,-,N/A,,Overcast,340,2013-02-19 18:20:00
7:25 PM,39.2,37.4,93,30.04,-9999.0,NNW,1.2,-,N/A,,Overcast,340,2013-02-19 18:25:00
7:55 PM,39.2,37.4,93,30.06,-9999.0,NNW,2.3,-,N/A,,Overcast,330,2013-02-19 18:55:00
7:59 PM,39.2,37.4,93,30.06,-9999.0,NNW,2.3,-,N/A,,Overcast,340,2013-02-19 18:59:00
8:25 PM,39.2,39.2,100,30.06,-9999.0,North,4.6,-,N/A,,Overcast,350,2013-02-19 19:25:00
8:28 PM,39.2,39.2,100,30.06,-9999.0,North,5.8,-,N/A,,Overcast,360,2013-02-19 19:28:00
8:50 PM,39.2,39.2,100,30.06,1.6,NNE,5.8,-,N/A,,Overcast,20,2013-02-19 19:50:00
8:55 PM,39.2,39.2,100,30.06,1.5,NNE,6.9,-,N/A,,Overcast,20,2013-02-19 19:55:00
8:57 PM,39.2,39.2,100,30.06,1.4,NNE,6.9,-,N/A,,Drizzle,20,2013-02-19 19:57:00
9:09 PM,39.2,39.2,100,30.06,1.4,North,5.8,-,N/A,,Drizzle,10,2013-02-19 20:09:00
9:13 PM,39.2,39.2,100,30.06,1.3,North,5.8,-,N/A,Rain,Drizzle,10,2013-02-19 20:13:00
9:25 PM,39.2,39.2,100,30.06,1.3,North,5.8,-,N/A,Rain,Drizzle,10,2013-02-19 20:25:00
9:46 PM,39.2,37.4,93,30.09,3.1,NE,15.0,-,N/A,,Overcast,50,2013-02-19 20:46:00
9:55 PM,39.2,37.4,93,30.09,3.7,ENE,15.0,-,N/A,,Overcast,60,2013-02-19 20:55:00
10:00 PM,38,36,88,30.11,4,ENE,13.4,,,Rain,Rain,60,2013-02-19 21:00:00
10:13 PM,37.4,35.6,93,30.09,5.6,ENE,13.8,-,N/A,,Overcast,60,2013-02-19 21:13:00
10:25 PM,37.4,33.8,87,30.09,6.2,ENE,13.8,-,N/A,,Overcast,70,2013-02-19 21:25:00
10:34 PM,37.4,33.8,87,30.09,6.2,ENE,12.7,-,N/A,,Overcast,70,2013-02-19 21:34:00
10:55 PM,37.4,33.8,87,30.09,6.2,ENE,12.7,-,N/A,,Overcast,70,2013-02-19 21:55:00
11:25 PM,37.4,32.0,81,30.12,6.2,ENE,10.4,-,N/A,,Overcast,70,2013-02-19 22:25:00
11:55 PM,35.6,32.0,87,30.12,6.2,ENE,11.5,-,N/A,,Overcast,70,2013-02-19 22:55:00